SL-8 R/B, 5555

Orbit data source: Space-Track

SL-8 R/B, 5555 is space debris in LEO originally from a launch on Wed, 13 Oct 1971 UTC launched from the Plesetsk Missile And Space Complex (PKMTR). Debris objects in space refer to the collection of defunct objects orbiting the Earth. Examples of debris include non-operational satellites, rocket bodies, and fragments generated from explosions, collisions, or faulty payload assembly.

Loading next visibility...
Identifier
5555, 1971-086J
Orbit
LEO
Country
Flag of CISCIS
Related business
Manufacturer
Omsk Av. Zav.
Mission
Spacecraft
Bus & Motor
S3, Unknown motor
Mass
1,434 kg wet, 1,434 kg dry
Launch date (UTC)
1971-10-13 (55 years ago)
Launch vehicle
Unknown
Launch site
Plesetsk Missile And Space Complex (PKMTR)
Object type
Payload
Rocket body
Debris
Shape & HBR
Unknown
Radar Cross Section
Large (>1 m²)

Expand to show TLE details & history
Last TLE update: 2 days ago

TLE from 2 days ago
0 SL-8 R/B
1 05555U 71086J   26171.07237047  .00000031  00000-0  40684-3 0  9998
2 05555  74.0204  13.4261 0075736 326.6695 195.5736 12.27029498449266
Epoch: 2026-06-20T01:44Z
TLE epoch observation values (Epoch: 2026-06-20T01:44:12.808Z)
Latitude
17.26475°
Longitude
-106.00082°
Altitude
1,621.81 km
Speed
7.036 km/s
True Right ascension
12h 33m 22s
True Declination
17° 10' 41"
Sunlit
Object was in daylight at epoch
Visualization orbit readout
Latitude
Unknown
Longitude
Unknown
Altitude
Unknown
Speed
Unknown
Apparent Right ascension
Unknown
Apparent Declination
Unknown
Sunlit
N/A
Visualization observer readout
Local Sidereal Time
23:08:34
Azimuth
Unknown
Elevation
Unknown
Doppler factor
Unknown
Orbital elements
Apogee altitude
1,620.052 km
Perigee altitude
1,499.813 km
Semi-major axis
7,938.07 km
Eccentricity
0.00757
Inclination
74.0204°
RAAN
13.4261°
Arg. of periapsis
326.6695°
True anomaly
195.3427°
Mean anomaly
195.5736°
Eccentric anomaly
195.45794°
Mean motion
3.06882 °/min
Orbital period
117.31 mins
BSTAR
0.00040684
Loading maneuver chart data...
Computing Atmospheric mass density...
Loading historical data...
Loading historical data...
Loading historical data...
Loading historical data...
Loading historical data...
Loading historical data...
Loading historical data...

Documentation

Showing up to 5 results
|